460  
NZUS99 KDVN 120610  
HRRCWA  
HOURLY WEATHER ROUNDUP  
NATIONAL WEATHER SERVICE QUAD CITIES IA IL  
100 AM CDT FRI AUG 12 2022  
 
NOTE: "FAIR" INDICATES FEW OR NO CLOUDS BELOW 12,000 FEET WITH  
NO SIGNIFICANT WEATHER AND/OR OBSTRUCTIONS TO VISIBILITY.  
 
* - THESE STATIONS ARE NOT NWS STATIONS AND ARE NOT SUBJECT TO NWS  
QUALITY CONTROL. SOME STATIONS DO NOT REPORT WEATHER SUCH AS FOG  
AND SOME ONLY REPORT TMP AND DP IN WHOLE DEGREES CELSIUS, WHICH ARE  
THEN CONVERTED TO FAHRENHEIT.  
   
..NORTHEAST IOWA...............................................
 
 
 
CITY SKY/WX TMP DP RH WIND PRES REMARKS  
DECORAH * CLOUDY 61 61 100 SE3 30.19S  
DUBUQUE CLEAR 63 57 81 SE10 30.23R  
6HR MIN TEMP: 63; 6HR MAX TEMP: 76;  
 
INDEPENDENCE * CLOUDY 64 61 90 E6 30.22R  
6HR MIN TEMP: 63; 6HR MAX TEMP: 72;  
 
OELWEIN * MOCLDY 63 59 88 SE7 30.21R  
WATERLOO CLOUDY 68 61 78 SE7 30.18R  
6HR MIN TEMP: 67; 6HR MAX TEMP: 71; 6HR PCP: 0.04;  
 
   
..SOUTHWEST AND SOUTH CENTRAL WISCONSIN........................
 
 
 
CITY SKY/WX TMP DP RH WIND PRES REMARKS  
BOSCOBEL PTCLDY 58 57 97 CALM 30.22R  
6HR MIN TEMP: 57; 6HR MAX TEMP: 77;  
 
JANESVILLE * NOT AVBL  
LONE ROCK CLEAR 59 56 89 CALM 30.23R  
6HR MIN TEMP: 59; 6HR MAX TEMP: 76;  
 
MINERAL POINT* NOT AVBL  
MONROE * CLEAR 61 54 76 SE7 30.24R  
6HR MIN TEMP: 60; 6HR MAX TEMP: 73;  
 
PRAIRIE DU CHI CLEAR 61 58 91 E3 30.21R  
6HR MIN TEMP: 61; 6HR MAX TEMP: 77;  
 
   
..EAST CENTRAL IOWA............................................
 
 
 
CITY SKY/WX TMP DP RH WIND PRES REMARKS  
CEDAR RAPIDS MOCLDY 64 60 87 SE6 30.19R  
6HR MIN TEMP: 64; 6HR MAX TEMP: 73;  
 
CLINTON * CLEAR 61 58 90 E6 30.23R  
6HR MIN TEMP: 61; 6HR MAX TEMP: 74;  
 
DAVENPORT CLEAR 64 58 80 E9 30.22R  
6HR MIN TEMP: 60; 6HR MAX TEMP: 76;  
 
IOWA CITY CLOUDY 70 58 65 E7 30.19S  
6HR MIN TEMP: 70; 6HR MAX TEMP: 76;  
 
MARSHALLTOWN MOCLDY 66 64 93 E6 30.18R  
6HR MIN TEMP: 66; 6HR MAX TEMP: 71; 6HR PCP: TRACE;  
 
MONTICELLO * NOT AVBL  
MUSCATINE * PTCLDY 68 63 83 SE3 30.19S  
NEWTON * CLEAR 68 68 100 E7 30.17R  
VINTON * PTCLDY 71 63 76 E5 30.19S  
6HR MIN TEMP: 69; 6HR MAX TEMP: 73;  
 
   
..NORTHWEST ILLINOIS...........................................
 
 
 
CITY SKY/WX TMP DP RH WIND PRES REMARKS  
FREEPORT * CLEAR 58 57 99 CALM 30.25S  
6HR MIN TEMP: 57; 6HR MAX TEMP: 74;  
 
MOLINE CLEAR 63 60 90 E10 30.20R  
6HR MIN TEMP: 61; 6HR MAX TEMP: 79;  
 
PERU * CLEAR 58 55 87 NE6 30.22S  
ROCHELLE * CLEAR 55 55 98 CALM 30.23F  
6HR MIN TEMP: 55; 6HR MAX TEMP: 74;  
 
ROCKFORD PTCLDY 59 55 87 CALM 30.24S  
6HR MIN TEMP: 59; 6HR MAX TEMP: 78;  
 
SAVANNA * NOT AVBL  
STERLING/R.F.* CLEAR 58 58 100 E3 30.23S  
6HR MIN TEMP: 58; 6HR MAX TEMP: 74;  
 
   
..SOUTHEAST IOWA AND NORTHEAST MISSOURI........................
 
 
 
CITY SKY/WX TMP DP RH WIND PRES REMARKS  
BURLINGTON MOCLDY 70 59 68 E6 30.18S  
6HR MIN TEMP: 70; 6HR MAX TEMP: 77;  
 
FAIRFIELD * PTCLDY 68 64 88 E7 30.17S  
FORT MADISON * CLOUDY 70 63 78 E5 30.18R  
KEOKUK * CLOUDY 72 66 83 E9 30.17R  
KIRKSVILLE CLEAR 72 70 93 E6 30.16S  
6HR MIN TEMP: 71; 6HR MAX TEMP: 85;  
 
KNOXVILLE * PTCLDY 70 64 83 E7 30.16S  
MT PLEASANT * CLEAR 68 68 100 E5 30.18S  
OTTUMWA MOCLDY 69 65 86 E7 30.16S  
6HR MIN TEMP: 69; 6HR MAX TEMP: 80;  
 
WASHINGTON * CLEAR 66 64 94 E7 30.17S  
   
..WESTERN ILLINOIS.............................................
 
 
 
CITY SKY/WX TMP DP RH WIND PRES REMARKS  
GALESBURG * PTCLDY 65 60 83 CALM 30.21S  
6HR MIN TEMP: 65; 6HR MAX TEMP: 75;  
 
MACOMB * CLOUDY 68 57 67 E7 30.22R  
6HR MIN TEMP: 68; 6HR MAX TEMP: 77;  
 
PEORIA CLEAR 66 52 60 E8 30.21R  
6HR MIN TEMP: 66; 6HR MAX TEMP: 79;  
 
QUINCY CLOUDY 71 64 78 E12 30.16S  
6HR MIN TEMP: 71; 6HR MAX TEMP: 83;  
 
END...  
 
 
CLICK HERE TO GO TO PREVIOUS BULLETINS.

The Nexlab IL Page
The Nexlab IA Page
The Nexlab MO Page Main Text Page